C/2012 LP26 ( Palomar )

Japanese version
Home page
Updated on October 9, 2017

---------------------------------------------------------------------

* Profile

Discovery Date June 10, 2012
Magnitude 20.8 mag
Discoverer Palomar Transient Factory program

* Pictures

* Orbital Elements

Epoch 2015 Aug. 6.0 TT = JDT 2457240.5
T 2015 Aug. 16.60550 TT                                 MPCW
q   6.5360641            (2000.0)            P               Q
z  +0.0001214      Peri.  145.15573     +0.51117918     +0.83866608
 +/-0.0000010      Node   153.98757     -0.85327677     +0.52142405
e   0.9992067      Incl.   25.37972     -0.10302716     -0.15734092
From 319 observations 2012 May 23-2016 Oct. 2, mean residual 0".6.

* Magnitudes Graph

        m1 = 3.7 + 5 log d + 12.0 log r(t - 70)

---------------------------------------------------------------------

The orbital elements are published on M.P.E.C. 2016-U66.
The magnitudes graphs are made with Comet for Windows.

---------------------------------------------------------------------

Copyright(C) Seiichi Yoshida (comet@aerith.net). All rights reserved.